• Join FlightAware (Why Join?)
  • Login
  • US Flag 
12:54AM EST


 

Airport Tracker/Info


-or-


 

Live Flight TrackerFlight Track Log ✈ WBR2634 ✈ 24-Sep-2013 ✈ KBRL - KORD

Flight Track Log - Related Links

Times and Time Zones

All times are in EDT time to prevent confusion due to time zone crossing. See the WBR2634 flight status page for this flight to view local times or setup timezone preferences in your user account.

Time Position Orientation Groundspeed Altitude Reporting Facility
EDT Latitude Longitude Course Direction KTS MPH feet Rate Location/Type
05:48PM 40.7633 -91.0858 67° East 137 158 2,600  Level Chicago Center
05:49PM 40.7747 -91.0525 66° East 103 119 3,600 1,065 Climbing Chicago Center
05:50PM 40.8844 -90.8672 65° Northeast  Level Estimated
05:50PM 40.7933 -91.0086 61° Northeast 111 128 4,800  Level Chicago Center
05:51PM 40.9017 -90.8137 67° East  Level FlightAware Approximate
05:51PM 40.8050 -90.9692 69° East 115 132 5,800  Level Chicago Center
05:52PM 40.9190 -90.7601 67° East  Level FlightAware Approximate
05:52PM 40.8211 -90.9289 62° Northeast 121 139 6,700  Level Chicago Center
05:53PM 40.9362 -90.7065 67° East  Level FlightAware Approximate
05:53PM 40.8364 -90.8872 64° Northeast 125 144 7,800  Level Chicago Center
05:54PM 40.9534 -90.6529 67° East  Level FlightAware Approximate
05:55PM 40.8486 -90.8431 70° East 127 146 8,700  Level Chicago Center
05:56PM 40.8686 -90.7956 61° Northeast 144 166 9,000 145 Climbing Chicago Center
05:57PM 40.8922 -90.7283 65° Northeast 165 190 9,000  Level Chicago Center
05:58PM 40.9106 -90.6728 66° East 164 189 9,000  Level Chicago Center
05:59PM 40.9314 -90.6214 62° Northeast 160 184 9,000 48 Level Chicago Center
06:00PM 40.9497 -90.5697 65° Northeast 156 180 9,100  Climbing Chicago Center
06:01PM 40.9689 -90.5161 65° Northeast 160 184 9,000 -97 Descending Chicago Center
06:02PM 40.9883 -90.4631 64° Northeast 160 184 8,900  Descending Chicago Center
06:03PM 41.0047 -90.4108 67° East 155 178 9,000 48 Climbing Chicago Center
06:04PM 41.0236 -90.3458 69° East 157 181 9,000 48 Level Chicago Center
06:05PM 41.0447 -90.2933 62° Northeast 159 183 9,100 48 Climbing Chicago Center
06:06PM 41.0631 -90.2397 66° East 159 183 9,100  Level Chicago Center
06:07PM 41.0831 -90.1875 63° Northeast 160 184 9,100  Level Chicago Center
06:08PM 41.1033 -90.1331 64° Northeast 162 186 9,100  Level Chicago Center
06:09PM 41.1211 -90.0775 67° East 162 186 9,100 -97 Level Chicago Center
06:10PM 41.1425 -90.0086 68° East 168 193 8,900  Descending Chicago Center
06:11PM 41.1619 -89.9517 66° East 168 193 9,100 97 Climbing Chicago Center
06:12PM 41.1842 -89.8961 62° Northeast 170 196 9,100 -48 Level Chicago Center
06:13PM 41.2058 -89.8411 62° Northeast 169 194 9,000 -48 Descending Chicago Center
06:14PM 41.2256 -89.7844 65° Northeast 168 193 9,000  Level Chicago Center
06:15PM 41.2439 -89.7292 66° East 166 191 9,000  Level Chicago Center
06:16PM 41.2619 -89.6739 66° East 163 188 9,000  Level Chicago Center
06:17PM 41.2825 -89.6083 67° East 159 183 9,000 -48 Level Chicago Center
06:18PM 41.3000 -89.5525 67° East 162 186 8,900 -48 Descending Chicago Center
06:19PM 41.3203 -89.4994 63° Northeast 161 185 8,900  Level Chicago Center
06:20PM 41.3417 -89.4494 60° Northeast 158 182 8,900  Level Chicago Center
06:21PM 41.3569 -89.3956 69° East 156 180 8,900 48 Level Chicago Center
06:22PM 41.3703 -89.3406 72° East 156 180 9,000  Climbing Chicago Center
06:24PM 41.3894 -89.2744 69° East 159 183 8,900  Descending Chicago Center
06:25PM 41.4106 -89.2217 62° Northeast 160 184 9,000 48 Climbing Chicago Center
06:26PM 41.4269 -89.1725 66° East 159 183 9,000  Level Chicago Center
06:27PM 41.4475 -89.1069 67° East 160 184 9,000 -48 Level Chicago Center
06:28PM 41.4644 -89.0533 67° East 159 183 8,900  Descending Chicago Center
06:29PM 41.4836 -89.0019 64° Northeast 157 181 9,000  Climbing Chicago Center
06:30PM 41.5042 -88.9489 63° Northeast 160 184 8,900 -48 Descending Chicago Center
06:31PM 41.5222 -88.8958 66° East 159 183 8,900 -48 Level Chicago Center
06:32PM 41.5375 -88.8403 70° East 160 184 8,800 -290 Descending Chicago Center
06:33PM 41.5542 -88.7744 71° East 157 181 8,300 -435 Descending Chicago Center
06:34PM 41.5742 -88.7203 64° Northeast 162 186 7,900 -194 Descending Chicago Center
06:35PM 41.5925 -88.6658 66° East 161 185 7,900  Level Chicago Center
06:36PM 41.6122 -88.6131 63° Northeast 161 185 7,900  Level Chicago Center
06:37PM 41.6317 -88.5578 65° Northeast 162 186 7,900 48 Level Chicago Center
06:38PM 41.6397 -88.4883 81° East 160 184 8,000  Climbing Chicago Center
06:39PM 41.6481 -88.4306 79° East 160 184 7,900 -290 Descending Chicago Center
06:40PM 41.6561 -88.3711 80° East 162 186 7,400 -435 Descending Chicago Center
06:41PM 41.6650 -88.3122 79° East 162 186 7,000 -194 Descending Chicago Center
06:42PM 41.6811 -88.2547 69° East 165 190 7,000 -145 Level Chicago Center
06:43PM 41.6986 -88.1950 69° East 172 198 6,700 -581 Descending Chicago Center
06:44PM 41.7467 -88.1392 41° Northeast 190 219 5,800 -823 Descending Chicago Center
06:45PM 41.7864 -88.0969 38° Northeast 186 214 5,000 -816 Descending Chicago Center
06:46PM 41.8256 -88.0519 41° Northeast 185 213 4,100 -960 Descending Chicago Center
06:47PM 41.8633 -88.0078 41° Northeast 183 211 3,000 -1,097 Descending Chicago Center
06:48PM 41.8833 -87.9833 42° Northeast 170 196 2,400 -989 Descending Chicago TRACON
06:49PM 41.9167 -87.9333 48° Northeast 160 184 1,500 -850 Descending Chicago TRACON
06:50PM 41.9500 -87.9000 37° Northeast 130 150 700 -800 Descending Chicago TRACON